Theta_e
308 308 309 309 309 309 309 309 311 312 313 314 314 315 315 314 314 312 310 311 313 313 313 313 314 314 314 314 312 307 306 308 311 311 313 311 312 311 308 310 309 310 311 310 315
308 309 309 309 309 309 309 309 311 312 313 314 315 316 316 315 314 313 313 314 314 313 313 313 312 313 310 314 313 308 305 307 309 311 313 312 312 312 312 309 311 309 309 309 311
309 309 309 309 309 309 309 309 310 312 314 316 317 317 316 315 310 309 314 314 314 312 313 314 313 313 313 313 315 311 309 309 312 311 312 313 312 311 312 312 310 309 306 303 303
309 309 309 309 309 310 310 311 311 313 315 317 317 317 316 315 311 313 312 313 314 312 314 313 311 312 312 313 312 315 313 311 313 313 312 313 312 312 311 310 306 302 303 303 301
309 310 310 310 309 310 312 314 315 315 317 318 318 317 315 312 313 315 312 311 310 312 313 311 312 311 312 311 311 314 313 312 312 310 310 310 311 312 309 304 303 304 302 301 300
311 311 312 312 312 312 313 315 317 318 318 319 318 314 312 315 315 316 314 312 311 311 312 311 310 309 311 311 311 310 310 309 309 310 309 311 310 310 305 303 304 303 301 300 299
315 315 315 314 314 314 314 316 317 318 319 319 317 311 312 313 315 315 315 312 311 312 310 311 311 311 310 312 310 311 311 308 308 309 309 307 311 310 306 303 303 301 300 299 298
316 316 315 315 315 314 315 316 317 318 319 320 312 312 311 313 313 315 314 313 313 312 312 312 312 310 312 309 307 310 308 310 310 309 309 309 313 307 305 304 302 300 298 298 297
317 316 316 315 315 314 315 316 318 319 319 316 313 312 313 310 311 313 314 312 312 311 311 311 311 309 309 308 308 307 311 309 309 309 310 309 311 306 303 303 301 299 298 298 296
318 318 317 316 315 315 315 317 319 317 314 313 314 312 311 311 309 311 312 311 310 308 309 308 305 308 306 307 313 311 309 307 309 311 311 312 311 305 303 302 300 298 297 296 296
320 319 318 317 316 315 316 319 315 313 314 313 313 312 310 309 310 309 310 310 308 307 309 308 308 309 309 307 309 309 308 310 308 309 312 311 310 305 303 301 300 298 297 296 295
321 321 320 319 316 316 317 318 316 312 315 313 313 310 311 310 309 308 310 309 309 309 306 307 308 309 307 308 308 308 309 308 308 309 310 311 308 304 302 301 300 298 297 296 295
324 323 321 320 317 316 317 319 316 313 318 317 313 313 313 309 310 309 308 308 309 308 307 308 310 307 308 308 308 307 308 308 310 311 309 309 309 305 302 300 298 296 295 294 293
323 324 323 320 316 316 316 317 319 318 319 317 317 316 309 309 312 309 308 308 309 309 308 308 308 311 309 310 309 310 307 309 311 312 315 308 312 306 303 301 298 296 294 293 293
322 323 324 320 318 317 318 318 320 315 325 316 315 308 308 315 310 308 307 309 309 310 310 313 311 310 312 312 308 312 310 310 310 310 309 309 309 308 303 302 299 296 294 293 292
323 321 323 319 318 319 318 319 316 322 327 320 310 309 311 309 308 306 308 307 308 310 310 311 308 309 310 309 309 306 308 307 306 307 312 310 310 309 305 305 300 296 294 293 292
322 321 321 320 319 319 314 316 323 323 321 318 312 309 312 308 308 308 309 309 313 315 313 311 311 308 307 309 307 308 310 314 315 313 315 308 309 310 305 303 300 297 294 292 291
321 320 321 321 319 318 314 320 322 321 323 309 309 308 313 308 308 308 309 311 309 311 313 316 318 310 306 309 310 308 310 315 316 316 314 309 313 312 301 300 299 296 294 292 290
320 319 320 320 319 316 317 324 322 320 319 312 310 311 309 308 309 307 307 309 310 307 315 314 315 308 306 307 308 309 311 309 310 297 309 311 310 303 299 297 296 295 293 292 290
318 319 319 320 319 315 321 325 319 317 320 313 319 313 312 310 310 309 307 306 309 307 309 313 315 309 307 308 307 309 308 314 311 312 311 310 311 310 301 298 296 295 294 292 290
317 318 315 317 317 318 323 322 319 317 319 316 318 317 312 313 311 309 310 311 310 307 308 310 312 310 308 309 310 309 310 309 311 310 311 308 308 305 303 300 297 296 295 293 291
315 317 313 314 319 312 316 315 315 318 318 319 319 319 319 318 317 312 313 316 310 309 309 309 314 312 310 307 308 309 309 310 315 311 307 308 309 300 302 300 298 296 295 292 291
316 314 312 314 320 311 312 315 316 319 320 320 320 318 317 320 321 319 318 311 311 311 312 312 313 310 314 311 309 311 309 307 308 308 307 310 308 300 300 299 298 297 294 293 290
310 315 311 310 313 314 313 312 316 316 318 316 316 316 317 316 316 317 319 311 310 312 311 312 312 310 314 312 309 309 310 308 310 313 309 308 305 303 300 299 298 296 294 292 291
305 310 308 313 313 314 313 313 315 316 316 316 315 315 316 317 317 316 315 309 306 312 312 312 314 310 308 309 310 306 305 307 308 308 312 310 308 306 303 301 299 297 294 291 289
302 305 305 306 307 314 315 315 315 314 315 314 314 314 315 311 314 314 313 312 312 304 310 309 314 311 312 306 309 312 310 307 308 307 304 305 305 302 300 294 294 294 291 290 288
299 298 303 303 304 310 313 314 315 313 314 312 313 313 314 313 309 302 305 308 308 308 309 308 308 309 313 297 301 309 305 308 308 305 307 308 307 295 295 297 295 292 289 289 286
Wind_Speed
5 5 5 5 6 7 8 8 9 10 12 13 14 15 15 17 17 12 4 2 1 3 1 3 3 4 4 3 4 3 4 1 3 5 2 3 5 1 2 2 5 3 1 4 7
6 6 6 7 8 8 8 8 9 10 12 14 15 15 16 18 17 7 2 3 3 4 3 3 2 3 3 2 3 5 3 6 4 4 2 3 0 3 2 5 2 3 4 15 10
7 9 9 8 8 9 9 9 10 11 13 14 15 15 15 15 6 2 0 5 5 5 4 5 6 3 3 2 1 2 5 3 3 4 1 1 4 0 1 4 1 4 7 12 18
8 9 9 10 10 10 10 10 10 11 12 15 15 14 13 7 3 1 1 4 6 7 7 4 4 3 2 1 1 0 4 4 3 1 1 2 2 5 4 2 4 8 8 7 12
11 10 10 10 10 10 10 10 11 11 12 14 14 13 6 4 7 3 2 3 5 9 5 3 3 4 2 2 2 2 3 2 4 5 5 2 6 3 8 7 9 12 14 11 12
11 12 10 10 10 10 10 10 11 12 12 14 12 9 1 4 4 3 3 4 5 8 5 5 5 5 3 3 4 1 3 7 6 4 4 5 1 5 5 6 10 12 11 10 14
10 10 10 10 10 11 10 10 11 12 13 14 11 4 1 12 4 4 4 3 4 6 4 5 5 3 4 1 2 1 5 6 4 1 4 6 1 5 5 8 10 10 8 11 14
11 10 10 10 11 12 12 11 12 13 13 11 6 1 6 6 6 8 6 4 4 3 2 3 5 4 1 2 6 3 4 4 2 2 0 3 5 7 6 10 8 9 8 10 12
13 12 11 10 10 11 12 12 13 12 9 4 2 1 8 3 3 7 8 4 6 4 4 5 3 3 4 5 4 4 3 4 7 1 2 3 6 5 11 9 8 8 8 9 10
16 13 12 11 10 10 12 12 11 8 2 2 1 3 4 4 4 6 8 11 3 4 4 5 5 3 2 4 6 6 4 4 5 1 2 0 6 8 12 12 8 7 7 8 10
19 16 13 11 9 9 9 3 3 3 3 9 6 4 0 3 6 5 7 8 4 5 5 1 3 9 14 11 2 5 4 5 3 3 1 5 2 7 7 8 8 7 6 7 8
23 21 16 12 9 8 5 2 4 2 7 13 7 7 8 5 3 4 12 6 5 6 5 3 8 11 4 4 4 1 3 5 4 4 5 4 2 4 6 4 4 5 6 6 5
25 25 21 14 10 9 9 11 3 1 3 7 7 7 6 12 8 9 12 5 5 7 9 8 5 7 7 4 5 5 6 5 6 2 2 1 3 4 4 6 7 6 5 5 5
25 24 25 18 8 12 7 13 18 2 4 6 6 6 5 8 5 4 15 6 3 11 7 8 5 5 5 6 10 6 8 6 5 4 5 2 5 3 5 5 4 3 4 4 4
28 26 26 29 7 11 5 11 11 3 6 1 3 2 4 6 6 2 3 3 7 8 7 7 7 6 7 10 7 5 5 7 3 4 2 2 1 2 6 6 8 8 7 6 5
30 28 26 27 15 8 12 19 13 5 12 3 3 4 6 2 1 3 3 3 3 4 2 4 1 7 8 2 8 8 6 6 4 3 3 9 7 4 6 7 10 6 6 6 6
32 31 29 24 9 18 20 10 4 6 3 6 4 5 3 5 3 4 6 7 7 5 7 2 5 3 4 5 2 3 6 0 1 1 6 4 5 6 6 6 15 17 12 8 6
32 32 32 35 27 29 20 5 9 7 8 4 4 4 8 6 4 6 6 6 6 2 3 6 5 11 7 8 8 7 7 5 7 5 2 0 6 4 1 3 12 13 11 8 8
32 32 32 28 29 34 7 10 10 6 6 10 4 4 5 5 7 5 7 6 10 11 9 6 6 1 3 4 8 6 6 3 6 2 2 4 3 0 4 6 12 15 12 12 8
15 18 22 21 34 24 9 20 8 7 5 5 16 11 12 9 9 9 9 5 6 12 4 5 3 2 3 4 1 4 7 2 1 2 4 4 4 5 8 12 13 14 13 9 7
8 3 4 20 36 6 11 9 8 7 6 8 13 9 7 8 10 7 8 1 4 5 6 5 3 0 4 5 7 3 3 2 3 4 5 1 5 1 13 18 21 17 15 13 11
5 3 10 27 8 2 1 4 2 5 3 4 1 4 8 9 9 7 11 2 5 4 9 7 4 5 5 2 0 0 6 6 5 5 2 2 5 3 6 17 17 17 14 10 10
2 3 11 9 6 4 4 4 2 4 7 7 6 4 1 7 5 5 6 1 4 3 6 6 2 2 5 1 1 4 4 4 4 3 6 4 5 4 6 10 11 14 9 9 9
2 4 2 2 2 8 6 5 5 5 3 4 2 2 3 2 2 5 5 3 2 3 7 6 2 4 6 2 1 4 4 4 4 6 6 9 2 3 6 10 9 9 10 9 8
2 3 2 4 6 13 11 9 13 7 7 14 7 8 6 5 7 7 4 3 3 6 4 5 5 4 4 1 2 1 4 5 7 5 9 10 8 7 14 15 19 16 11 11 10
4 3 3 3 3 13 11 13 15 9 9 4 5 13 12 5 6 6 5 4 4 1 5 6 4 6 4 1 4 5 14 8 11 9 9 2 8 2 5 7 7 11 12 12 12
1 2 2 2 1 3 5 5 5 13 6 4 17 10 15 17 5 3 2 5 6 11 10 7 6 6 5 2 2 6 14 17 11 7 9 11 15 5 4 8 11 10 13 14 12
Wind_Direction
337 340 339 338 342 342 346 347 346 347 349 346 343 339 337 331 326 316 271 236 196 168 175 141 80 40 52 67 63 124 61 185 226 165 253 340 21 166 334 337 343 317 354 10 0
320 322 325 325 326 328 331 334 336 338 342 341 339 337 337 334 326 290 221 195 175 168 150 132 87 46 44 42 23 81 105 221 208 208 220 313 16 325 21 352 306 333 17 354 1
307 311 312 311 312 318 322 326 329 332 337 338 337 336 336 337 338 292 207 183 176 172 138 114 102 75 71 28 81 144 187 217 256 235 227 267 304 222 2 315 217 322 323 14 30
294 300 302 306 310 318 320 322 324 328 333 336 334 333 332 342 318 348 150 173 183 165 147 120 51 61 77 270 152 212 239 195 285 270 85 259 314 304 193 162 63 64 61 43 29
287 292 305 305 307 313 319 325 326 324 328 333 333 333 344 13 253 280 224 180 176 177 161 121 113 123 182 194 146 189 269 202 263 279 251 312 238 246 280 80 86 75 57 45 35
282 288 297 307 309 311 314 317 320 323 324 326 328 330 19 277 277 258 228 206 201 183 167 144 179 189 168 190 170 204 275 286 281 248 238 216 318 143 100 105 65 59 52 44 39
277 284 291 297 302 306 308 310 311 313 315 320 322 309 143 242 235 239 227 224 207 193 155 200 157 133 134 253 325 348 331 321 258 253 217 153 173 231 108 89 69 53 49 47 35
270 276 284 289 296 301 303 304 305 306 305 308 322 256 242 249 257 222 192 155 163 170 184 151 171 104 97 138 21 23 56 356 308 148 39 151 258 69 62 97 69 52 39 44 34
265 268 275 282 289 295 298 304 306 303 298 280 286 217 262 270 215 217 204 174 146 129 108 120 101 107 53 103 12 2 235 205 316 259 140 159 259 78 8 90 78 55 41 44 36
262 263 268 274 282 290 298 308 303 291 245 224 130 348 246 224 165 159 168 150 117 105 58 52 50 97 58 119 220 198 209 230 234 265 69 105 273 43 19 93 88 70 49 48 48
262 260 260 265 277 283 304 322 353 281 219 201 186 238 337 134 140 160 155 124 98 69 170 58 136 212 202 201 172 151 184 202 243 247 119 246 244 12 36 65 84 79 66 54 45
263 261 256 254 254 264 274 232 218 198 298 239 237 262 248 196 131 191 162 145 149 181 117 58 231 226 163 173 198 207 179 230 281 239 179 232 135 59 43 49 67 91 81 71 57
266 258 255 245 235 244 225 220 182 13 259 272 196 199 201 174 218 192 162 149 159 152 191 184 222 148 166 159 185 218 202 217 211 1 291 3 221 182 65 79 67 52 59 57 57
265 264 251 224 204 218 228 252 224 322 290 250 223 250 149 145 232 182 175 149 183 193 167 233 237 179 173 196 190 229 203 164 180 131 235 140 274 183 154 120 95 106 94 102 96
263 260 262 222 191 174 223 209 179 150 278 33 144 124 147 173 132 350 177 58 174 175 145 228 175 191 206 226 153 236 137 167 139 162 76 228 270 240 136 191 180 176 174 174 149
257 258 258 222 219 207 198 158 128 153 227 243 125 159 126 132 108 119 130 58 135 133 276 240 213 167 201 134 170 142 81 55 64 99 257 209 181 221 196 193 168 180 186 177 161
256 258 247 214 219 197 160 133 190 195 239 201 188 175 159 156 170 159 165 171 164 143 219 209 217 201 146 102 73 129 113 53 335 286 227 142 163 246 179 162 171 173 181 181 170
257 255 242 236 216 189 159 218 207 207 211 101 116 111 176 156 204 172 142 191 240 140 128 176 272 173 186 177 173 186 169 167 203 200 223 126 226 248 333 217 157 161 168 165 172
257 247 236 232 217 185 178 213 198 191 200 150 123 153 222 203 164 153 193 211 200 180 186 181 267 171 157 150 146 187 205 166 108 52 46 210 290 151 95 111 150 164 168 180 181
222 216 232 222 208 181 219 227 212 187 175 161 204 182 188 191 164 183 173 202 209 183 190 205 260 213 148 115 34 169 157 124 42 177 245 265 255 225 194 182 174 180 188 184 180
169 211 195 201 182 203 219 220 206 202 183 182 204 190 195 176 186 195 193 220 206 171 181 155 182 15 124 210 178 151 178 77 135 156 187 243 248 233 195 182 181 187 192 184 184
168 214 174 165 202 12 207 160 272 193 166 200 202 178 173 171 180 202 201 241 156 166 162 195 160 182 191 152 319 9 195 170 192 208 206 165 263 340 215 182 180 188 189 184 182
189 181 182 183 217 159 198 222 261 213 200 167 184 220 139 167 164 172 156 110 132 143 152 177 182 80 343 166 66 224 193 137 115 81 199 159 255 31 106 160 183 186 188 177 174
308 202 165 221 161 217 187 201 201 211 262 112 114 101 136 154 137 176 167 138 137 116 100 69 149 187 216 139 70 192 185 178 155 209 207 230 275 214 168 170 177 187 182 178 170
68 288 70 199 205 194 190 187 188 207 200 188 195 219 174 179 166 189 145 113 56 167 116 149 192 176 201 222 9 217 209 190 205 204 217 245 230 218 196 189 189 180 169 166 176
177 273 33 337 345 194 184 199 199 186 166 211 197 198 192 179 193 179 141 166 181 171 171 172 200 160 188 199 205 253 266 219 233 232 257 215 254 262 122 102 144 170 164 177 186
310 360 76 187 33 306 204 187 233 192 202 184 205 203 206 218 189 103 88 168 179 169 178 169 152 150 219 77 116 271 235 217 221 185 203 218 236 152 171 176 186 180 180 188 179